Location: Dürrenzimmern
(49.0865°N, 9.0770°E)
Time: 22:19:50
(UTC+00:00)

Daily predictions for brighter satellites

Satellite Brightness Start Highest point End
(mag) Time Altitude Azimuth Time Altitude Azimuth Time Altitude Azimuth
Cosmos 1802 Rocket 4.1 17:00:38 10° N 17:07:06 85° E 17:13:32 10° S
IRS-P3 4.1 17:02:20 10° SSE 17:07:35 66° ENE 17:12:53 10° N
Cosmos 2285 Rocket 4.4 17:02:37 10° NNW 17:08:47 45° ENE 17:14:53 10° SE
Cosmos 2233 Rocket 4.1 17:07:02 10° N 17:13:16 62° ENE 17:19:31 10° SSE
Cosmos 2219 Rocket 3.9 17:08:26 10° NW 17:13:36 40° WSW 17:18:44 10° S
SJ-6B 4.3 17:15:01 10° E 17:16:43 13° ENE 17:18:26 10° NNE
Cosmos 1867 3.8 17:13:20 10° SW 17:18:46 79° NW 17:24:16 10° NE
CARTOSAT-1 4.3 17:15:05 10° SE 17:18:46 30° ENE 17:22:28 10° N
USA 267 3.4 17:13:41 10° NE 17:20:15 81° NNW 17:26:48 10° WSW
Cosmos 1725 Rocket 4.1 17:14:29 10° N 17:20:46 85° W 17:27:03 10° S
Aureole 3 Rocket 3.4 17:18:25 10° N 17:22:05 30° ENE 17:25:05 10° SE
SJ-12 4.3 17:19:41 10° S 17:23:27 65° WSW 17:27:16 10° NNW
NOSS 0 Rocket 3.9 17:17:30 10° NNW 17:23:48 76° ENE 17:30:02 10° SE
Cosmos 2322 4.0 17:19:30 10° NNW 17:25:13 78° WSW 17:30:56 10° SSE
Cosmos 192 4.3 17:20:57 10° NNW 17:25:52 90° NNE 17:30:44 10° SSE
UNK 4.4 17:22:07 10° N 17:26:36 58° WNW 17:31:05 10° SSW
SL-08 R/B 4.5 17:21:05 10° N 17:27:19 87° E 17:33:24 10° S
Cosmos 2151 Rocket 3.6 17:26:33 10° N 17:31:05 88° E 17:35:34 10° S
SL-16 R/B 3.5 17:27:26 10° N 17:31:44 21° NE 17:35:24 12° E
Cosmos 1814 Rocket 4.2 17:27:20 10° SSW 17:32:37 80° WNW 17:37:53 10° NNE
Cosmos 2227 Rocket 3.6 17:29:57 10° SE 17:33:34 18° E 17:36:55 11° ENE
SAR-Lupe-1 4.1 17:31:38 10° SSE 17:35:12 86° WSW 17:38:49 10° NNW
Cosmos 1607 4.0 17:31:55 10° SW 17:38:02 88° NW 17:44:17 10° NE
Cosmos 1315 Rocket 3.4 17:34:30 10° NNW 17:38:14 59° W 17:41:59 10° S
ATLAS 5 CENTAUR R/B 3.8 17:34:26 10° WNW 17:38:22 31° WSW 17:43:04 10° S
Cosmos 1125 Rocket 3.4 17:33:19 10° NNW 17:38:32 74° ENE 17:43:42 10° SSE
Cosmos 2061 Rocket 4.0 17:32:07 10° N 17:38:32 81° E 17:44:51 10° SSE
SL-16 R/B 4.2 17:36:28 10° N 17:41:56 34° WNW 17:47:24 10° WSW
ARIANE 6 FM1 Upper Stage 4.2 17:39:56 10° NNW 17:42:49 19° NNE 17:44:44 14° ENE
Cosmos 1455 Rocket 3.4 17:38:56 10° N 17:43:00 39° ENE 17:47:02 10° SE
CZ-4C R/B 1.8 17:39:41 10° SW 17:43:56 87° NW 17:49:27 10° NE
NOSS 3-3 (C) 3.7 17:39:16 10° SSW 17:44:26 71° SE 17:50:39 10° NE
Cosmos 1975 Rocket 4.2 17:41:37 10° SE 17:44:55 21° E 17:48:12 10° NE
BREEZE-M DEB (TANK) 3.5 17:41:14 10° WNW 17:45:28 71° SSW 17:52:39 10° ESE
USA 306 3.5 17:43:25 10° WNW 17:45:53 26° SW 17:47:36 10° SSE
YAOGAN 1 2.5 17:42:07 10° SSE 17:46:22 89° ENE 17:50:40 10° NNW
Cosmos 158 Rocket 4.3 17:42:40 10° SW 17:47:29 63° WNW 17:52:20 10° NNE
SeaSat 1 3.4 17:43:34 10° SSE 17:48:20 52° WSW 17:53:08 10° NW
SAR-Lupe-4 4.4 17:47:53 10° S 17:51:23 53° WSW 17:54:54 10° NNW
Cosmos 1464 Rocket 4.4 17:45:43 10° N 17:51:39 39° ENE 17:57:30 10° SE
NOAA 6 4.0 17:49:09 10° SSE 17:54:15 70° ENE 17:59:25 10° N
Spot 4 Rocket 4.0 17:49:44 10° SSE 17:54:51 85° ENE 17:59:59 10° NNW
COSMO-SKYMED 1 2.3 17:52:02 10° NNE 17:56:09 69° ESE 18:00:15 10° S
Cosmos 2228 3.6 17:52:49 10° N 17:56:34 31° ENE 18:00:20 10° SE
CZ-4 R/B 3.2 17:58:02 13° NE 17:58:02 13° NE 17:58:53 10° NNE
PSLV R/B 3.3 17:52:52 10° SSE 17:56:58 74° ENE 18:01:04 10° N
Okean 1 Rocket 3.2 17:52:54 10° NNW 17:57:19 77° W 18:01:40 10° S
USA 234 4.4 17:52:06 10° SSE 17:58:15 42° SW 18:04:26 10° WNW
Okean 2 Rocket 3.6 17:55:17 10° NNW 17:59:39 62° W 18:03:56 10° S
Cosmos 2221 Rocket 3.6 17:55:18 10° S 17:59:46 87° E 18:04:18 10° N
ARIANE 5 R/B 4.4 17:56:04 10° SSW 18:00:39 33° W 18:05:13 10° NNW
SPOT 5 3.9 18:00:21 20° E 18:02:32 27° ENE 18:06:46 10° N
Cosmos 773 Rocket 4.4 17:58:21 10° S 18:03:15 41° ESE 18:08:11 10° NE
BREEZE-M (TANK) 3.0 18:04:39 10° W 18:07:11 57° SSW 18:12:02 15° ESE
Radarsat Rocket 4.1 18:02:07 10° SSE 18:07:57 80° WSW 18:14:19 10° NNW
CZ-2D R/B 4.0 18:06:23 10° S 18:10:14 57° W 18:14:12 10° NNW
NOSS 3-3 (A) 3.9 18:06:52 10° SW 18:12:07 72° NW 18:18:19 11° NE
Sich 1 Rocket 4.3 18:08:20 10° NNW 18:12:49 58° W 18:17:17 10° S
CSL-04 Rocket 4.1 18:11:33 19° ESE 18:14:39 36° ENE 18:19:27 10° N
IRAS Rocket 4.2 18:10:59 10° SSE 18:16:32 70° ENE 18:22:10 10° NNW
Cosmos 2297 Rocket 2.1 18:12:00 10° SSW 18:17:40 81° ESE 18:23:22 10° NNE
Tiangong 0.1 18:16:50 10° SSW 18:18:44 15° SSE 18:18:49 15° SSE
Cosmos 1025 Rocket 4.1 18:15:49 10° SSW 18:19:57 46° WNW 18:24:10 10° N
Cosmos 836 Rocket 4.4 18:15:25 10° S 18:20:38 68° ESE 18:25:54 10° NNE
Resurs 01 Rocket 1.6 18:18:06 10° SSE 18:22:30 84° WSW 18:26:56 10° NNW
Orbus 7S? 4.2 18:13:33 10° WNW 18:22:36 80° NNE 18:24:45 31° ESE
Cosmos 2150 Rocket 3.9 18:18:00 10° NNW 18:23:09 65° ENE 18:27:13 16° SE
Cosmos 2298 Rocket 4.0 18:20:14 10° NNW 18:25:31 65° ENE 18:29:31 17° SE
Cosmos 2344 3.9 18:23:01 10° S 18:30:11 38° ESE 18:32:55 28° ENE
NOSS 3-4 (A) 3.8 18:24:07 10° NW 18:30:49 90° SW 18:37:51 14° SE
NOSS 3-4 (C) 3.8 18:24:22 10° NW 18:31:07 90° NE 18:38:02 14° SE
Cosmos 1782 3.0 18:28:50 10° N 18:31:36 42° NE 18:31:36 42° NE
BREEZE-M DEB (TANK) 4.4 18:08:36 10° WSW 18:33:17 69° S 18:36:50 31° E
CRYOSAT 2 4.4 18:30:50 10° N 18:35:44 81° W 18:40:37 10° S
Helios 1A Rocket 4.1 18:39:28 21° S 18:39:28 21° S 18:40:41 10° S
CZ-4B R/B 3.7 18:43:54 65° ENE 18:43:54 65° ENE 18:47:43 10° N
Lacrosse 5 rocket 2.6 18:41:32 10° WNW 18:44:30 24° N 18:44:56 24° N
ATLAS 2AS CENTAUR R/B 4.3 18:42:20 10° WNW 18:47:45 24° N 18:51:31 16° NE
Cosmos 2263 Rocket 2.8 18:42:34 10° S 18:46:41 35° SE 18:46:41 35° SE
Terra 3.5 18:51:38 20° NNE 18:51:38 20° NNE 18:53:29 10° N
SJ-6B 3.2 18:46:43 13° S 18:49:41 53° W 18:53:05 10° NNW
Cosmos 2237 Rocket 3.2 18:45:52 10° NW 18:51:16 46° WSW 18:56:39 10° S
Cosmos 44 Rocket 3.3 18:56:05 10° SW 19:01:01 86° NW 19:02:15 52° NE
ERS-1 Rocket 3.9 19:04:25 32° NNE 19:04:25 32° NNE 19:07:30 10° N
USA 267 3.9 18:59:48 28° NE 19:02:55 48° N 19:09:07 10° W
Meteor 1-31 Rocket 4.3 19:06:44 26° NNW 19:06:44 26° NNW 19:08:23 10° NNW
Cosmos 1816 Rocket 4.4 18:58:56 10° S 19:05:06 89° E 19:11:22 10° N
Cosmos 2034 Rocket 3.8 19:02:41 10° N 19:08:54 88° E 19:13:44 18° S
ADEOS 4.0 19:12:55 46° NNE 19:12:55 46° NNE 19:16:53 10° N
Cosmos 1544 Rocket 4.1 19:11:07 10° NNW 19:14:21 49° NNW 19:14:21 49° NNW
SL-16 R/B 2.1 19:10:57 10° NNW 19:16:40 88° ENE 19:17:18 71° SSE
Cosmos 2227 Rocket 2.1 19:11:12 10° SSW 19:16:51 83° WNW 19:18:49 43° NNE
Cosmos 1634 Rocket 4.0 19:11:00 10° N 19:17:04 60° ENE 19:17:04 60° ENE
Cosmos 1975 Rocket 4.2 19:18:13 10° SSW 19:22:21 42° WNW 19:26:29 10° N
ARIANE 6 FM1 Upper Stage 4.1 19:18:31 10° NW 19:20:45 32° NNW 19:20:45 32° NNW
CZ-4 R/B 3.6 19:33:01 18° NNW 19:33:01 18° NNW 19:34:04 10° NNW
CZ-4C R/B 3.7 19:28:53 10° W 19:33:01 27° NNW 19:35:03 22° NNE
Gbstr 26 Del rocket 4.5 19:31:43 10° SW 19:37:45 54° S 19:37:45 54° S
CZ-4B R/B 3.7 19:40:18 50° NNW 19:40:18 50° NNW 19:44:11 10° NNW
SPOT 5 3.8 19:39:23 43° SW 19:40:12 47° W 19:45:06 10° NNW
MOS 1 4.4 19:43:59 68° NNW 19:43:59 68° NNW 19:48:57 10° NNW
Cosmos 2297 Rocket 4.2 19:57:51 10° W 20:02:22 24° NW 20:06:06 13° N
Cosmos 1943 4.3 20:00:03 10° NNW 20:03:25 37° NNW 20:03:25 37° NNW
Terra 4.4 20:30:15 16° NNW 20:30:15 16° NNW 20:31:18 10° NNW
Cosmos 2263 Rocket 4.1 20:26:17 10° WSW 20:28:28 22° WSW 20:28:28 22° WSW
ATLAS 2AS CENTAUR R/B 4.2 20:34:52 10° NW 20:38:56 27° N 20:38:56 27° N
Cosmos 2344 4.0 20:36:48 10° WSW 20:43:00 51° WNW 20:43:00 51° WNW
USA 267 4.3 20:47:08 38° NNW 20:47:08 38° NNW 20:51:30 10° WNW
Cosmos 2227 Rocket 4.5 20:57:36 10° W 21:00:43 20° NW 21:00:43 20° NW
